RH
94 99 97 100 98 89 84 83 77 76 76 82 77 84 88 84 76 66 69 64 64 80 74 66 68 54 56 62 63 63 63 68 76 61 57 57 50 55 59 58 65 59 72 78 73 63 34 40 38 33 28 46 46 49
86 98 99 100 100 93 90 87 82 76 73 78 84 76 82 88 82 68 73 71 65 69 70 70 67 66 68 65 69 77 49 67 66 68 73 64 55 59 48 38 62 50 44 50 52 45 33 43 32 37 49 49 44 45
94 92 96 100 100 100 94 92 88 81 75 78 85 80 77 86 85 73 68 68 71 83 82 76 76 67 65 64 66 69 74 62 67 64 69 63 50 58 52 54 49 53 57 56 53 43 52 48 45 43 46 43 46 46
95 96 90 97 98 100 100 96 92 87 84 78 83 84 76 81 88 81 71 68 68 80 72 70 70 69 67 65 64 69 65 69 72 76 68 67 53 56 56 50 53 44 57 56 58 49 50 50 52 47 46 50 52 52
96 89 92 88 95 99 100 100 99 93 90 88 83 84 87 93 92 88 77 69 69 64 69 86 76 72 72 67 67 67 69 75 80 72 77 69 78 71 75 73 77 57 50 48 43 38 41 39 46 52 54 53 56 56
99 98 88 90 89 97 98 100 100 100 93 90 89 88 91 96 93 89 84 73 71 71 79 77 82 77 77 74 75 76 80 86 86 80 81 86 80 70 79 76 57 56 51 44 39 48 50 53 56 50 50 55 55 56
89 97 96 89 93 93 95 98 100 100 100 94 96 91 92 99 95 85 78 74 76 72 74 81 96 81 77 79 87 87 84 90 84 86 86 88 83 85 84 81 52 60 60 52 49 54 49 49 51 50 52 54 53 50
88 92 99 94 91 95 94 95 99 100 100 100 98 95 98 100 98 94 87 64 75 72 80 91 88 84 75 88 88 93 91 89 89 89 92 90 88 91 91 69 64 53 57 55 50 48 50 57 59 58 57 53 55 56
87 91 96 99 89 87 93 94 98 98 99 100 100 100 99 100 99 88 85 87 83 74 90 96 84 82 84 92 90 92 91 92 90 93 93 90 91 96 70 67 65 68 58 55 62 62 61 61 62 60 54 52 54 46
83 86 89 93 98 84 85 90 93 96 90 96 100 100 100 99 93 86 82 86 94 91 94 95 92 94 89 94 95 93 94 95 95 88 93 97 84 73 72 74 73 68 66 65 61 63 65 64 65 52 42 42 38 41
73 82 84 91 94 93 80 85 88 94 90 98 100 99 100 97 84 94 98 97 97 98 98 96 92 98 88 94 95 90 96 96 98 88 95 95 95 80 70 70 69 75 73 61 51 54 59 58 55 48 48 44 43 44
68 78 75 88 91 96 84 80 83 96 98 97 97 99 98 98 100 99 99 99 99 96 98 98 96 90 94 88 93 97 93 90 97 92 94 92 84 74 73 60 63 71 64 58 54 57 50 44 41 41 42 44 42 43
66 68 72 84 89 94 88 79 81 96 100 94 97 100 100 100 99 98 98 99 98 97 98 98 98 94 94 89 96 94 95 95 88 98 87 88 74 79 73 69 68 62 56 53 52 45 44 48 46 44 44 42 43 44
72 76 79 81 89 92 85 80 81 91 100 99 99 98 98 98 96 93 92 91 91 97 96 94 98 92 94 94 96 97 90 90 97 98 92 89 83 79 74 70 68 66 63 66 61 48 44 40 41 42 43 44 46 46
83 84 87 86 90 83 79 73 84 97 99 100 99 97 98 88 98 100 97 98 100 90 90 94 96 93 98 97 92 91 99 97 89 90 87 86 81 80 77 71 60 55 51 49 50 57 52 48 46 42 35 38 45 46
82 75 76 77 85 84 80 72 81 96 97 99 100 100 98 98 99 99 100 99 98 87 93 92 99 100 98 97 97 96 97 98 84 90 90 85 83 80 76 61 53 48 46 42 42 41 42 47 48 44 41 40 39 42
72 75 81 71 93 96 83 96 96 100 99 99 99 92 96 98 96 93 97 95 88 83 89 95 96 82 96 100 99 95 93 84 86 90 95 82 77 77 72 58 54 48 47 48 48 47 46 43 47 56 67 34 37 37
86 82 76 90 95 98 100 100 100 99 98 94 96 98 87 89 94 93 90 90 86 93 93 90 92 100 98 98 98 90 88 93 96 89 86 80 77 73 58 59 52 48 50 49 47 45 49 52 62 66 50 40 47 43
83 81 92 100 96 91 99 100 99 95 95 99 99 99 96 94 91 87 91 84 91 93 95 96 94 97 94 93 86 93 95 93 89 91 87 78 68 65 57 49 47 50 48 46 46 48 45 43 44 46 45 48 63 54
86 89 96 100 96 99 99 99 100 100 98 94 98 99 96 96 96 94 95 88 91 99 99 98 96 86 83 83 88 88 84 88 82 86 83 80 67 62 62 60 57 43 43 46 48 54 51 44 33 34 38 46 68 72
99 99 100 100 100 98 96 96 99 98 99 99 96 97 100 99 99 100 99 92 97 98 98 96 93 84 79 75 74 76 82 73 64 67 63 74 75 66 63 57 46 47 53 48 49 42 52 55 38 35 42 49 53 56
99 100 100 100 99 99 98 92 94 97 98 97 97 96 100 96 94 94 95 97 91 78 88 80 91 86 81 78 79 73 68 64 58 64 60 59 69 75 73 55 62 67 52 40 41 45 39 34 39 45 52 54 58 61
100 98 98 99 97 97 93 98 97 98 97 96 97 97 97 99 97 98 98 92 78 90 88 86 81 74 76 70 71 71 64 54 51 54 56 53 53 52 43 36 34 41 61 37 34 40 44 37 46 58 59 64 66 69
99 98 97 96 96 95 97 96 97 97 97 97 96 96 96 98 97 97 96 97 91 98 98 90 87 89 84 72 89 80 71 57 57 44 39 42 74 49 35 31 37 34 32 30 40 46 46 49 52 58 59 66 69 74
97 96 97 96 97 96 96 98 96 96 95 96 96 97 96 96 96 96 98 94 100 98 91 92 78 68 71 85 74 78 70 71 68 57 47 35 40 46 45 41 36 30 35 45 46 45 46 49 53 56 63 71 76 77
95 95 96 95 96 95 94 96 95 94 95 97 94 95 96 95 96 92 94 93 96 91 91 90 86 97 97 97 99 91 72 53 47 59 42 36 37 47 66 78 79 38 26 34 41 47 48 50 55 61 68 70 76 78
96 96 96 94 94 94 95 95 92 95 95 94 95 95 96 95 95 89 94 97 98 96 85 94 97 96 93 85 64 46 40 41 39 36 28 29 29 28 31 53 69 33 34 43 52 58 62 65 68 73 79 81 87 89
96 96 95 96 95 96 95 95 95 95 95 95 95 95 95 91 76 85 90 81 85 93 99 99 97 81 58 48 46 41 40 41 39 38 37 37 38 44 44 41 40 44 50 53 55 58 66 70 76 80 89 97 98 94
96 92 90 94 95 95 95 95 95 93 84 96 95 94 89 85 89 91 70 62 69 69 89 86 75 59 47 43 40 36 35 39 58 70 73 82 87 39 37 37 42 46 51 56 58 62 65 77 87 93 97 93 97 100
95 95 89 93 94 100 99 96 97 92 85 81 80 84 82 84 59 50 53 62 55 64 52 49 50 47 55 56 58 55 51 52 50 55 79 81 65 48 51 54 55 56 59 62 61 56 61 74 82 84 91 85 90 96
96 96 94 96 99 97 96 92 94 77 92 95 95 90 83 90 72 52 51 52 51 52 58 68 67 58 60 71 71 86 64 50 52 51 51 52 54 56 55 57 59 60 61 66 72 79 87 94 99 100 100 95 88 93
96 100 100 98 94 94 94 95 97 95 94 94 95 95 91 90 82 85 62 70 66 66 63 54 46 41 40 47 48 47 48 50 54 57 61 61 62 61 61 60 60 67 76 80 85 92 95 100 100 100 98 97 97 97
98 99 99 99 96 93 94 92 91 88 91 94 94 99 100 99 85 87 62 59 67 57 52 47 43 41 42 46 50 53 55 54 54 55 56 53 51 62 71 70 74 85 94 96 95 95 99 99 99 98 97 95 94 95
Wind_Speed
12 17 10 27 29 26 25 22 16 18 16 13 11 8 8 5 3 1 2 3 1 2 2 1 2 2 1 2 4 3 3 2 2 2 2 2 3 4 1 4 5 6 6 4 2 2 6 5 4 6 4 0 3 4
15 14 16 3 33 28 24 20 20 17 20 16 13 9 8 6 4 2 2 1 1 4 2 1 3 2 1 0 3 1 2 3 4 3 2 2 2 1 3 2 1 3 6 4 8 6 4 6 3 1 4 4 3 5
12 14 13 12 11 29 23 23 22 19 20 18 14 12 9 7 5 3 2 3 2 2 2 2 1 2 1 1 1 3 2 2 2 2 3 2 2 4 3 5 2 4 4 3 1 2 7 7 3 2 4 4 4 4
10 13 13 14 9 8 20 26 24 22 18 18 16 13 10 8 5 4 3 3 2 3 2 2 1 1 1 0 1 0 1 2 4 2 2 2 2 3 3 2 4 4 5 4 5 7 5 7 5 5 3 4 5 4
7 10 11 11 12 10 9 5 32 24 21 18 17 15 13 10 6 5 5 5 5 2 3 2 0 2 2 0 2 2 2 2 1 1 1 3 1 2 0 1 4 5 7 5 5 4 2 3 3 7 8 7 7 7
8 7 10 10 10 12 11 8 4 29 24 22 17 16 15 12 8 2 3 7 8 5 3 1 1 3 4 5 7 5 3 2 2 2 2 2 2 2 2 3 5 5 3 4 2 1 2 2 2 4 6 6 5 6
8 8 7 9 9 9 11 13 7 3 28 24 19 18 17 16 13 3 2 3 7 5 2 1 2 1 0 2 2 2 3 2 2 0 1 0 1 2 2 4 4 3 5 4 3 5 1 2 2 4 6 8 9 9
9 8 7 7 8 9 8 11 11 5 2 24 24 18 18 19 12 5 6 6 5 3 3 2 2 1 5 1 1 2 2 2 2 0 1 1 0 1 4 8 4 1 4 4 4 3 0 5 7 5 8 7 6 6
8 9 9 7 7 9 9 9 11 9 4 6 22 19 13 7 6 5 7 9 5 1 2 2 4 4 3 2 2 2 1 1 0 2 2 3 2 5 7 5 4 7 4 4 4 5 5 6 7 6 6 5 6 4
9 9 10 9 7 8 9 9 11 10 5 4 20 6 3 6 10 16 3 2 3 2 2 3 1 2 3 1 1 2 2 1 1 3 2 3 5 10 8 5 4 3 7 8 5 3 4 4 7 6 6 4 5 5
10 10 10 11 10 7 9 9 8 6 1 2 1 2 6 20 5 2 2 3 2 2 4 3 3 4 2 3 3 1 2 1 1 3 3 3 4 4 3 3 2 4 6 6 3 4 7 8 8 6 5 6 5 3
11 11 11 11 11 9 7 6 5 3 4 3 9 7 7 2 1 4 4 2 4 6 4 5 4 3 2 1 3 1 3 2 4 2 2 4 4 5 4 3 2 6 8 7 7 8 10 11 11 8 6 4 2 1
12 12 13 13 13 11 8 6 3 1 14 8 2 2 3 3 5 7 9 4 4 4 5 4 3 4 2 1 3 3 4 4 2 2 4 5 2 3 5 4 4 5 9 11 8 12 13 11 8 6 4 2 3 6
14 14 14 14 14 14 10 7 6 6 7 3 4 4 5 4 5 5 4 5 4 4 9 3 4 3 2 3 3 4 2 3 3 3 7 3 6 7 6 4 6 7 8 8 7 10 9 8 5 3 4 4 5 8
16 15 15 16 16 14 12 9 7 6 3 3 4 5 6 3 2 2 1 2 1 7 7 4 3 3 2 4 2 4 4 4 6 6 4 4 7 8 8 6 7 7 7 7 8 7 7 6 4 5 7 7 7 11
14 15 19 18 14 15 14 12 9 5 2 2 4 3 2 1 1 2 2 1 1 6 2 2 3 3 4 5 5 9 8 8 5 4 3 5 8 8 7 7 7 10 10 9 8 6 6 6 7 8 9 11 12 14
16 14 15 14 15 13 12 9 7 4 3 4 5 4 2 2 3 3 4 4 3 4 3 3 6 8 4 3 5 5 6 4 4 3 2 7 12 11 8 6 10 11 10 9 7 8 8 6 8 8 9 17 15 18
17 12 17 14 21 13 6 7 4 5 8 7 4 3 4 2 3 2 3 4 5 2 2 4 4 4 7 8 5 4 5 3 2 3 5 5 7 10 15 9 14 13 11 12 11 9 7 8 10 13 15 18 19 24
22 21 20 25 19 9 4 7 5 5 8 3 3 2 2 2 2 2 4 7 3 1 0 1 3 4 4 4 4 3 2 3 4 3 3 6 15 16 17 19 16 12 12 10 9 10 10 11 16 17 20 21 18 23
26 25 24 31 21 6 4 3 8 3 4 4 3 3 3 3 4 3 4 6 7 3 4 4 5 3 4 3 4 3 3 4 5 3 3 3 12 19 18 17 15 13 10 10 11 9 10 15 20 20 20 22 18 19
20 23 29 28 14 10 3 3 3 3 2 4 3 5 3 3 3 4 4 4 5 4 4 5 4 4 4 4 5 5 4 7 7 5 8 7 9 14 15 15 13 10 9 8 8 12 10 17 23 23 23 26 25 26
7 13 10 14 4 6 4 8 3 1 2 1 2 3 2 4 5 6 4 6 6 9 5 7 4 5 4 5 5 13 11 14 12 11 12 15 5 3 3 13 13 9 14 16 16 16 21 23 22 21 22 26 24 25
13 12 6 6 3 6 5 8 3 4 3 3 2 5 3 2 4 1 5 5 7 4 5 5 5 9 6 7 8 7 18 17 6 7 11 13 14 16 15 13 18 15 9 20 19 19 20 21 22 21 23 22 23 24
11 7 5 5 5 5 3 3 2 3 3 4 5 3 3 3 1 3 4 4 3 2 4 4 3 3 2 3 3 4 11 15 11 11 17 15 3 10 16 16 15 18 21 22 19 19 21 23 22 20 22 22 23 22
5 5 4 5 3 4 5 4 3 2 3 2 3 3 3 2 3 3 4 3 3 4 6 4 6 6 6 3 3 4 9 14 9 6 16 19 14 7 9 14 17 20 19 15 20 21 23 20 19 21 23 23 23 25
4 4 4 4 3 4 5 5 7 6 3 3 5 2 2 3 3 7 4 3 4 6 9 10 10 6 3 2 3 2 13 20 18 5 10 19 21 14 6 3 2 17 19 15 15 16 16 17 19 23 25 25 22 23
2 2 2 1 1 1 1 1 1 2 5 5 4 4 4 5 6 4 2 3 3 2 10 12 12 5 4 6 12 9 17 22 18 14 12 12 15 18 20 12 8 22 17 15 12 13 16 18 21 24 25 26 22 23
1 1 1 1 2 1 3 1 1 2 2 2 4 4 4 5 4 2 3 1 4 7 12 8 8 11 10 11 20 15 13 16 14 8 6 10 14 15 14 17 20 20 20 19 14 11 14 17 21 24 25 25 26 25
2 4 2 2 1 2 2 1 0 1 0 2 2 2 3 2 2 2 4 3 8 11 9 8 5 10 10 11 13 13 11 15 11 5 4 3 3 6 6 7 4 4 5 9 12 15 17 18 20 22 22 24 25 27
4 3 2 3 3 3 1 1 2 2 1 2 2 2 1 2 3 2 2 7 6 4 9 14 17 15 10 10 6 6 9 11 13 11 4 4 3 3 2 4 7 8 11 15 18 22 22 22 23 25 21 21 21 22
4 2 3 3 1 2 2 3 3 2 2 2 2 2 1 3 6 3 2 1 5 8 10 9 11 12 12 10 7 4 1 8 9 8 6 5 6 7 6 7 10 13 17 20 21 23 24 24 23 22 20 19 20 21
3 3 1 3 2 2 3 3 2 3 4 3 4 3 4 3 2 3 5 1 8 4 4 7 6 6 8 6 7 8 7 7 5 3 2 4 5 6 10 14 18 21 22 23 23 24 24 24 21 21 19 18 21 22
3 2 1 1 4 5 3 3 4 4 3 3 2 2 1 0 3 3 8 11 2 7 10 8 6 5 6 7 7 8 7 6 5 3 3 7 11 14 17 20 20 18 18 20 21 21 21 21 21 19 19 23 25 24
Wind_Direction
345 4 306 231 212 208 212 215 214 218 226 232 234 259 297 285 315 259 147 49 102 131 267 82 27 151 87 123 155 190 75 333 60 131 165 218 180 221 138 181 179 169 150 194 115 208 294 162 90 169 223 268 157 142
347 346 13 283 220 208 208 213 213 221 220 230 228 240 273 308 279 280 198 188 83 102 163 107 102 102 53 10 142 184 199 166 189 106 190 133 205 114 174 262 74 224 187 182 187 213 238 217 214 221 170 160 173 127
357 346 354 10 52 216 208 209 209 214 219 224 225 228 244 277 267 272 225 179 133 88 11 82 162 105 133 33 88 141 279 194 190 177 156 161 219 134 188 243 218 238 168 225 29 228 236 245 230 211 189 160 135 126
354 360 352 2 11 47 219 215 210 210 214 223 224 226 231 243 261 255 243 207 181 113 124 268 144 134 55 312 172 216 221 97 94 78 130 153 198 171 214 233 199 204 141 195 261 275 294 265 219 189 145 110 112 117
339 352 358 353 355 355 16 210 218 212 213 217 219 221 227 225 236 255 253 234 223 172 189 207 310 16 1 94 144 155 122 97 103 83 110 229 163 122 341 11 249 189 191 170 228 226 162 236 246 167 154 166 164 140
335 334 349 3 352 357 350 352 169 214 214 216 214 216 220 219 218 250 324 227 202 187 112 187 325 6 34 99 98 88 85 91 95 150 225 270 272 120 161 235 252 207 207 190 227 106 193 346 80 124 144 151 147 141
305 322 329 349 356 347 354 348 340 143 214 214 212 212 216 213 204 194 216 305 170 171 105 40 346 294 45 52 38 62 64 88 112 155 253 231 284 137 195 242 275 235 240 217 184 133 108 189 192 155 130 135 132 122
326 297 319 325 338 343 357 342 336 315 129 213 214 208 214 205 203 230 219 154 170 107 63 121 258 324 172 155 96 349 93 57 34 177 320 211 340 124 249 241 250 45 105 123 114 55 82 116 101 95 113 122 113 117
306 323 307 315 317 327 339 345 340 324 293 195 202 192 167 178 185 182 183 192 217 126 179 137 176 216 159 120 110 71 77 114 317 197 232 137 213 226 228 212 198 195 190 175 81 82 99 119 127 119 111 113 130 141
306 304 314 297 300 304 317 329 328 334 291 328 154 156 168 179 151 125 107 73 23 334 51 212 86 177 140 129 76 92 9 154 193 238 116 212 253 265 252 214 190 193 173 146 118 131 128 134 154 154 158 145 147 151
275 293 306 312 292 282 305 318 333 358 73 269 63 80 117 141 146 103 173 185 143 231 207 227 173 142 244 122 152 172 176 154 31 260 187 252 264 240 187 190 227 230 186 183 159 162 164 152 155 146 147 156 156 160
264 279 289 300 291 286 268 302 314 333 129 96 113 112 135 174 152 167 189 153 195 221 186 161 182 144 160 146 110 181 142 160 250 172 236 256 250 211 179 162 151 157 149 150 154 141 142 146 152 146 151 163 184 221
258 271 277 287 284 273 243 266 244 216 137 112 36 170 184 164 182 198 186 198 194 186 179 162 128 130 110 61 78 120 140 208 125 213 242 236 247 191 175 149 124 133 136 127 126 137 139 139 148 154 169 214 280 298
253 267 272 273 275 261 225 237 232 220 236 164 181 236 213 181 233 199 181 173 193 129 151 128 115 133 141 96 142 116 156 127 201 236 237 243 204 187 179 168 136 155 152 142 143 143 139 144 159 192 238 265 282 288
250 270 274 272 275 227 210 218 216 211 259 218 149 233 220 240 38 360 299 103 115 146 143 111 77 102 118 118 159 121 158 218 212 229 232 223 185 165 169 168 160 155 158 155 153 155 161 171 208 258 264 275 277 283
251 275 270 267 250 209 206 200 196 199 245 231 239 218 231 260 144 80 347 201 221 150 95 68 124 112 180 150 167 207 172 217 234 215 212 156 161 166 164 171 172 165 164 160 164 174 182 204 226 252 275 279 287 290
258 252 262 259 206 195 181 169 172 204 229 230 231 211 182 142 180 176 164 192 191 166 192 134 162 194 104 156 212 193 205 217 214 222 192 178 168 171 164 164 163 165 167 176 194 211 219 228 240 255 273 288 300 297
241 235 246 209 172 161 176 195 187 213 230 231 225 207 204 189 141 158 169 165 167 224 153 214 140 173 192 187 218 226 223 223 215 194 176 169 154 157 167 165 174 180 187 207 216 226 239 252 260 264 277 291 298 297
238 241 226 189 165 142 178 198 214 246 230 202 197 158 152 169 220 135 156 173 136 106 66 297 207 213 221 214 209 218 221 189 177 181 161 160 164 166 169 177 181 188 202 212 217 230 245 259 267 283 289 294 283 291
238 231 218 198 173 141 209 223 192 211 229 221 180 174 187 191 159 170 166 182 188 171 207 215 222 227 205 231 207 202 175 144 136 128 143 169 176 167 174 176 190 204 215 233 242 252 270 282 284 288 290 289 281 276
216 208 199 200 193 187 182 189 216 236 203 194 145 145 205 144 164 169 181 166 188 208 221 214 225 246 238 260 240 177 157 168 186 179 172 170 184 174 180 197 203 205 209 229 247 267 255 257 279 293 296 294 294 291
171 172 176 189 158 193 227 197 181 219 166 230 147 131 175 205 204 196 155 189 222 226 211 221 214 210 217 225 219 199 186 176 161 129 136 141 145 153 189 203 187 206 218 237 242 249 268 282 291 295 293 294 297 295
161 159 164 174 176 192 257 154 172 182 175 179 150 160 214 218 214 141 202 210 235 210 201 200 210 198 199 186 168 170 169 156 148 144 151 160 176 191 200 200 210 214 230 254 256 261 269 287 293 291 293 292 293 291
154 172 182 192 182 196 157 194 215 163 173 178 178 208 272 215 166 206 231 222 223 191 184 204 174 129 83 135 163 167 171 157 130 149 168 154 132 202 208 220 223 235 244 259 271 275 280 285 291 288 290 290 289 282
154 190 188 193 175 157 178 164 180 185 178 157 148 222 238 138 189 222 230 248 206 192 186 176 199 196 172 162 155 132 150 168 176 183 188 192 196 197 226 239 247 252 259 255 263 271 280 286 288 291 293 290 284 285
178 193 205 188 190 186 194 162 179 187 182 167 199 214 170 161 177 240 230 208 197 194 188 183 179 165 154 106 112 168 215 202 197 163 197 204 212 209 214 202 247 267 269 263 269 269 276 286 291 294 294 296 295 296
137 221 189 201 233 144 218 4 100 145 172 183 172 175 191 207 222 248 262 219 199 216 187 179 155 138 143 195 212 208 204 198 193 210 214 213 226 235 235 221 217 258 273 286 284 275 277 287 291 294 294 298 296 295
121 30 341 324 179 223 183 122 148 208 172 143 142 189 194 202 237 244 221 308 182 140 156 155 152 173 202 230 204 179 162 172 185 192 226 245 251 256 262 262 262 264 271 281 283 286 289 290 289 294 296 292 295 298
33 343 306 358 63 74 62 44 23 330 43 147 187 226 246 239 278 301 354 75 116 128 109 114 164 188 171 138 144 160 174 180 154 170 213 264 325 294 263 252 252 243 268 284 283 287 291 293 296 298 297 296 296 300
352 342 26 16 47 28 337 325 306 300 265 269 286 283 308 317 311 328 138 128 123 130 152 161 161 169 176 177 187 201 212 211 217 205 184 212 223 108 123 287 285 289 293 295 299 301 301 300 301 302 290 294 294 294
322 9 62 35 81 278 283 319 296 281 358 341 327 77 298 315 317 319 294 236 129 138 146 151 179 194 177 170 164 151 208 197 205 210 226 248 258 275 293 294 296 298 300 302 303 299 298 297 293 285 278 280 288 289
13 45 45 30 307 295 13 21 339 11 338 24 355 353 348 9 315 308 33 128 190 185 177 162 151 162 171 146 120 114 113 120 119 144 242 292 306 302 297 300 303 304 303 301 298 296 295 289 280 274 267 278 293 298
4 22 104 61 0 3 344 20 25 348 28 39 359 324 266 258 253 282 30 21 44 60 74 82 103 110 106 115 123 118 115 111 98 73 2 314 304 300 301 299 300 304 304 301 301 300 294 288 283 278 283 292 295 298